[[{"header":{"parameterUnit":"m.s-1","parameterCategory":1,"la1":30.2991,"la2":30.254,"lo1":-89.0895,"lo2":-89.0444,"dy":0.0017,"dx":0.0017,"nx":28,"ny":28,"refTime":"2025-12-18T03:00:00:Z","depth":0,"parameterNumber":2,"parameterNumberName":"U-component_of_WINDS"},"data":[0,0,0,0,0,0,0,0,0,0,0,0,0,0,0,0,0,0,0,0,0,0,0,0,0,0,0,0,0,0,0,0,0,0,0,0,0,0,0,0,0,0,0,0,0,0,0,0,0,0,0,0,0,0,0,0,0,0,-5.0241,-5.0241,0,-5.0289,-5.0289,-5.029,-5.0168,-5.0164,-5.016,-5.0156,-5.0207,-5.0212,-5.0216,0,0,0,0,0,0,0,0,0,0,0,0,0,-5.0046,-5.005,-5.0241,-5.0241,-5.0242,-5.0289,-5.0289,-5.029,-5.0168,-5.0164,-5.0159,-5.0155,-5.0205,-5.0211,-5.0217,0,0,0,0,0,0,0,0,0,0,0,0,0,-5.0116,-5.0052,-5.024,-5.0187,-5.0182,-5.0288,-5.0289,-5.029,-5.0169,-5.0163,-5.0158,-5.0152,-5.0203,-5.021,-5.0218,-5.0378,0,0,-5.024,-5.0243,0,0,0,0,0,0,0,0,-5.0112,-5.0123,-5.0194,-5.0191,-5.0186,-5.0216,-5.0239,-5.032,-5.0171,-5.0174,-5.0156,-5.015,-5.0215,-5.0221,-5.0242,-5.0381,-5.0383,-5.0241,-5.0245,-5.0249,-5.0251,0,0,0,0,0,0,0,-5.0108,-5.0121,-5.026,-5.0195,-5.019,-5.0161,-5.0165,-5.0254,-5.0226,-5.0174,-5.0165,-5.0172,-5.0211,-5.0236,-5.0243,-5.0384,-5.0241,-5.0247,-5.0252,-5.0255,-5.0659,-5.0665,0,0,0,0,0,0,-5.0109,-5.0117,-5.0258,-5.0261,-5.0134,-5.0169,-5.0173,-5.0212,-5.0225,-5.0221,-5.0177,-5.0166,-5.0226,-5.0234,-5.0244,-5.0435,-5.0248,-5.0255,-5.026,-5.0653,-5.0661,-5.0667,0,0,0,0,0,0,-5.0106,-5.0123,-5.0256,-5.0187,-5.0202,-5.0179,-5.0224,-5.0216,-5.024,-5.0227,-5.0222,-5.0207,-5.0222,-5.0234,-5.0346,-5.0435,-5.0259,-5.0265,-5.0646,-5.0655,-5.0664,-5.0817,0,0,0,0,0,0,-5.0101,-5.0122,-5.0182,-5.0189,-5.0206,-5.0357,-5.0229,-5.0221,-5.0253,-5.024,-5.0254,-5.0251,-5.0218,-5.0336,-5.0354,-5.0442,-5.0271,-5.0637,-5.065,-5.0661,-5.0804,-5.083,-5.0853,0,0,0,0,0,-5.0094,-5.0223,-5.0186,-5.0204,-5.028,-5.0363,-5.0372,-5.0331,-5.0261,-5.0322,-5.0314,-5.025,-5.0422,-5.0349,-5.0368,-5.0459,-5.0632,-5.0646,-5.066,-5.0793,-5.0825,-5.0853,0,0,0,0,0,0,-5.0227,-5.0223,-5.0182,-5.0317,-5.0341,-5.0342,-5.0417,-5.0367,-5.0412,-5.0397,-5.0345,-5.035,-5.0473,-5.0477,-5.0395,-5.0617,-5.0515,-5.0534,-5.061,-5.064,-5.0664,-5.0661,-5.0277,0,0,0,0,0,-5.0272,-5.0339,-5.0332,-5.0452,-5.0466,-5.044,-5.0474,-5.0441,-5.0464,-5.0474,-5.0474,-5.05,-5.0559,-5.06,-5.0654,-5.0804,-5.0806,-5.0876,-5.0901,-5.0921,-5.0938,-5.102,-5.1052,-5.0714,-5.0714,-5.0714,0,0,-5.0365,-5.0372,-5.0417,-5.0479,-5.0493,-5.0565,-5.0449,-5.0529,-5.0582,-5.0486,-5.0593,-5.0595,-5.062,-5.0753,-5.0811,-5.076,-5.1032,-5.0939,-5.0956,-5.0962,-5.1038,-5.107,-5.1099,-5.0724,-5.0722,-5.0721,0,0,-5.0573,-5.0584,-5.0686,-5.0704,-5.0728,-5.071,-5.0735,-5.0744,-5.0742,-5.0848,-5.0779,-5.0841,-5.0945,-5.0966,-5.0991,-5.121,-5.1154,-5.1229,-5.1358,-5.1439,-5.1466,-5.1489,-5.1569,-5.1598,-5.1246,-5.1247,-5.1247,0,-5.0686,-5.079,-5.0744,-5.083,-5.086,-5.0778,-5.0882,-5.0901,-5.0943,-5.0966,-5.0908,-5.1038,-5.1049,-5.1187,-5.1241,-5.1263,-5.1291,-5.1227,-5.1465,-5.1488,-5.151,-5.1585,-5.1615,-5.1256,-5.1255,-5.1254,-5.1253,0,-5.0929,-5.1003,-5.1083,-5.1126,-5.1165,-5.1259,-5.1229,-5.1274,-5.1239,-5.1228,-5.1339,-5.135,-5.1406,-5.1436,-5.1401,-5.157,-5.1538,-5.1474,-5.1371,-5.1552,-5.1622,-5.165,-5.1269,-5.1265,-5.1263,-5.126,0,0,-5.1219,-5.1238,-5.1268,-5.1288,-5.131,-5.1367,-5.1459,-5.1514,-5.1555,-5.1586,-5.1663,-5.1754,-5.1696,-5.1724,-5.1692,-5.1762,-5.1938,-5.169,-5.1689,-5.1737,-5.2127,-5.2176,-5.221,-5.1901,-5.1906,-5.1911,-5.2126,0,-5.1425,-5.1583,-5.1546,-5.1702,-5.1771,-5.1695,-5.1775,-5.1798,-5.1791,-5.185,-5.1841,-5.1908,-5.1825,-5.1841,-5.1908,-5.1903,-5.2016,-5.1886,-5.1973,-5.1977,-5.197,-5.2247,-5.2298,-5.25,-5.2153,-5.2157,-5.2161,0,-5.1686,-5.1729,-5.1893,-5.1906,-5.1934,-5.2007,-5.2056,-5.2112,-5.2138,-5.2128,-5.2161,-5.2116,-5.2208,-5.2104,-5.2232,-5.2145,-5.2179,-5.2182,-5.2189,-5.2196,-5.208,-5.2262,-5.2563,-5.2594,-5.2203,-5.22,-5.2197,0,-5.1883,-5.1982,-5.2093,-5.2112,-5.2131,-5.2184,-5.2195,-5.2215,-5.2251,-5.2295,-5.2318,-5.2372,-5.2401,-5.2445,-5.2416,-5.2342,-5.2549,-5.2442,-5.2545,-5.2546,-5.2592,-5.259,-5.2904,-5.2613,-5.2612,-5.2612,-5.2611,0,-5.2117,-5.2221,-5.2183,-5.2251,-5.2366,-5.2323,-5.2438,-5.2439,-5.2459,-5.2527,-5.2464,-5.253,-5.2487,-5.255,-5.2528,-5.2639,-5.2652,-5.2648,-5.2641,-5.2654,-5.2655,-5.2675,-5.2661,-5.262,-5.2618,-5.2616,-5.2615,0,-5.2357,-5.2335,-5.2452,-5.2461,-5.2466,-5.255,-5.2558,-5.2623,-5.2612,-5.2699,-5.2718,-5.2701,-5.2772,-5.2747,-5.2823,-5.2808,-5.295,-5.2924,-5.2941,-5.2935,-5.304,-5.3031,-5.3379,-5.3423,-5.3103,-5.3106,-5.3108,0,-5.2508,-5.2586,-5.2604,-5.2646,-5.2661,-5.2728,-5.2766,-5.2728,-5.277,-5.2807,-5.2868,-5.2933,-5.2984,-5.3101,-5.3096,-5.3155,-5.3131,-5.3249,-5.3139,-5.315,-5.3134,-5.313,-5.3139,-5.3271,-5.3274,-5.3277,-5.328,0,-5.2778,-5.2765,-5.2821,-5.2876,-5.2923,-5.2963,-5.2998,-5.3036,-5.3001,-5.3051,-5.3123,-5.3163,-5.3241,-5.3308,-5.3361,-5.3372,-5.3322,-5.3315,-5.3342,-5.3356,-5.3363,-5.3362,-5.3002,-5.3307,-5.3304,-5.3302,-5.3301,-5.33,-5.2979,-5.3045,-5.307,-5.3136,-5.3159,-5.3194,-5.3256,-5.3254,-5.3313,-5.3374,-5.3349,-5.3433,-5.3459,-5.3525,-5.3544,-5.361,-5.3565,-5.3603,-5.3613,-5.3624,-5.3638,-5.3353,-5.362,-5.3619,-5.3618,-5.3617,-5.3617,0,-5.3247,-5.326,-5.3321,-5.3373,-5.3426,-5.3374,-5.3411,-5.3458,-5.3533,-5.3562,-5.3614,-5.3699,-5.3764,-5.3765,-5.3826,-5.3879,-5.3858,-5.3897,-5.3892,-5.3897,-5.3674,-5.3646,-5.3913,-5.3913,-5.3913,-5.3913,-5.3913,-5.3913,-5.3393,-5.3504,-5.3494,-5.3617,-5.3629,-5.3711,-5.3737,-5.377,-5.3793,-5.389,-5.3945,-5.3945,-5.3964,-5.4027,-5.4085,-5.4084,-5.411,-5.4158,-5.4149,-5.3941,-5.3912,-5.3884,-5.3856,-5.4164,-5.4164,-5.4365,-5.4367,-5.4368]},{"header":{"parameterUnit":"m.s-1","parameterCategory":1,"la1":30.2991,"la2":30.254,"lo1":-89.0895,"lo2":-89.0444,"dy":0.0017,"dx":0.0017,"nx":28,"ny":28,"refTime":"2025-12-18T03:00:00:Z","depth":0,"parameterNumber":3,"parameterNumberName":"V-component_of_WINDS"},"data":[0,0,0,0,0,0,0,0,0,0,0,0,0,0,0,0,0,0,0,0,0,0,0,0,0,0,0,0,0,0,0,0,0,0,0,0,0,0,0,0,0,0,0,0,0,0,0,0,0,0,0,0,0,0,0,0,0,0,-0.8747,-0.8746,0,-0.8611,-0.861,-0.8608,-0.8527,-0.8526,-0.8526,-0.8526,-0.8382,-0.8378,-0.8375,0,0,0,0,0,0,0,0,0,0,0,0,0,-0.8929,-0.8926,-0.8747,-0.8745,-0.8744,-0.8611,-0.861,-0.8608,-0.8527,-0.8526,-0.8526,-0.8526,-0.8383,-0.8379,-0.8374,0,0,0,0,0,0,0,0,0,0,0,0,0,-0.8827,-0.8925,-0.8747,-0.8688,-0.8681,-0.8612,-0.8609,-0.8607,-0.8527,-0.8526,-0.8526,-0.8525,-0.8384,-0.8379,-0.8374,-0.8352,0,0,-0.8358,-0.8355,0,0,0,0,0,0,0,0,-0.8833,-0.8821,-0.8698,-0.8692,-0.8684,-0.8585,-0.8621,-0.8521,-0.8527,-0.8585,-0.8526,-0.8525,-0.8449,-0.8439,-0.8414,-0.8345,-0.8339,-0.8357,-0.8354,-0.8352,-0.835,0,0,0,0,0,0,0,-0.884,-0.8826,-0.8693,-0.8696,-0.8688,-0.8665,-0.865,-0.8601,-0.8522,-0.858,-0.8574,-0.8559,-0.8445,-0.842,-0.841,-0.8337,-0.8357,-0.8353,-0.8349,-0.8347,-0.8239,-0.8239,0,0,0,0,0,0,-0.8858,-0.8832,-0.8697,-0.8689,-0.8759,-0.8662,-0.8645,-0.8618,-0.8522,-0.8507,-0.856,-0.8556,-0.8429,-0.8417,-0.8405,-0.8371,-0.8352,-0.8347,-0.8344,-0.8238,-0.8239,-0.8239,0,0,0,0,0,0,-0.8862,-0.8846,-0.8703,-0.8759,-0.8739,-0.866,-0.8629,-0.8615,-0.8589,-0.8507,-0.8492,-0.8549,-0.8428,-0.8412,-0.8365,-0.8365,-0.8345,-0.834,-0.8238,-0.8238,-0.8239,-0.8304,0,0,0,0,0,0,-0.8867,-0.8848,-0.8842,-0.8759,-0.8736,-0.8668,-0.8629,-0.8613,-0.8581,-0.8575,-0.8492,-0.8478,-0.8426,-0.8373,-0.836,-0.8357,-0.8336,-0.8238,-0.8238,-0.8239,-0.8301,-0.8306,-0.8311,0,0,0,0,0,-0.8874,-0.8865,-0.8842,-0.8826,-0.8726,-0.8668,-0.8655,-0.8597,-0.8582,-0.8572,-0.8518,-0.8481,-0.8367,-0.8369,-0.8353,-0.8349,-0.8237,-0.8238,-0.8239,-0.8299,-0.8305,-0.8311,0,0,0,0,0,0,-0.8948,-0.8853,-0.8826,-0.8791,-0.8738,-0.8655,-0.8642,-0.8606,-0.8555,-0.8551,-0.848,-0.8462,-0.8421,-0.838,-0.8384,-0.832,-0.8298,-0.8295,-0.8349,-0.8354,-0.8359,-0.8369,-0.8331,0,0,0,0,0,-0.896,-0.8923,-0.8842,-0.8818,-0.8793,-0.8722,-0.8695,-0.8654,-0.8596,-0.8573,-0.8517,-0.846,-0.8411,-0.838,-0.8331,-0.8295,-0.8274,-0.8283,-0.8288,-0.8292,-0.8291,-0.8265,-0.8267,-0.8241,-0.8241,-0.8241,0,0,-0.8985,-0.8929,-0.891,-0.8831,-0.8786,-0.8746,-0.8704,-0.8665,-0.8634,-0.8567,-0.8519,-0.8475,-0.8406,-0.8364,-0.8342,-0.8329,-0.8293,-0.8293,-0.8297,-0.8293,-0.8265,-0.8268,-0.827,-0.8241,-0.8241,-0.8241,0,0,-0.901,-0.8965,-0.8938,-0.8894,-0.8826,-0.8778,-0.8772,-0.8693,-0.8661,-0.8612,-0.856,-0.8521,-0.8439,-0.8391,-0.8357,-0.836,-0.8322,-0.8345,-0.837,-0.8345,-0.8347,-0.8348,-0.8347,-0.8348,-0.8344,-0.8344,-0.8344,0,-0.9048,-0.8989,-0.8929,-0.8892,-0.8858,-0.8796,-0.8767,-0.8726,-0.8644,-0.8621,-0.8607,-0.85,-0.845,-0.8394,-0.8395,-0.8369,-0.8357,-0.8355,-0.8352,-0.8353,-0.8353,-0.8351,-0.8351,-0.8347,-0.8347,-0.8347,-0.8346,0,-0.9039,-0.8998,-0.8984,-0.8909,-0.8872,-0.884,-0.8772,-0.8742,-0.8704,-0.8657,-0.8605,-0.8543,-0.8478,-0.8462,-0.8424,-0.8399,-0.8392,-0.8366,-0.8341,-0.836,-0.8356,-0.8355,-0.8352,-0.8351,-0.835,-0.8349,0,0,-0.9107,-0.8997,-0.8993,-0.8956,-0.8875,-0.8841,-0.8804,-0.8742,-0.8716,-0.8661,-0.8626,-0.8557,-0.8531,-0.8492,-0.8448,-0.8427,-0.8429,-0.8402,-0.8399,-0.8408,-0.8394,-0.8413,-0.8413,-0.8404,-0.8403,-0.8403,-0.8399,0,-0.9118,-0.9051,-0.8994,-0.8946,-0.8906,-0.8845,-0.8812,-0.8757,-0.8711,-0.8668,-0.8616,-0.8567,-0.8539,-0.8514,-0.849,-0.8434,-0.8425,-0.8434,-0.8367,-0.8366,-0.8386,-0.8412,-0.8432,-0.8432,-0.8397,-0.8397,-0.8397,0,-0.9123,-0.9071,-0.902,-0.894,-0.8921,-0.8893,-0.8829,-0.879,-0.8725,-0.8692,-0.8647,-0.8601,-0.8555,-0.8535,-0.8469,-0.8476,-0.8445,-0.8413,-0.8412,-0.8402,-0.8382,-0.8401,-0.843,-0.843,-0.8394,-0.8395,-0.8395,0,-0.9175,-0.9092,-0.905,-0.9021,-0.8928,-0.8908,-0.8868,-0.8803,-0.8768,-0.8712,-0.8688,-0.8627,-0.8593,-0.8545,-0.8482,-0.8474,-0.8421,-0.8397,-0.8391,-0.8392,-0.8382,-0.8383,-0.8405,-0.8365,-0.8365,-0.8365,-0.8365,0,-0.9193,-0.9163,-0.9072,-0.9046,-0.901,-0.8943,-0.8908,-0.8862,-0.8804,-0.8765,-0.8708,-0.8673,-0.8593,-0.8547,-0.8497,-0.8448,-0.8433,-0.8404,-0.8391,-0.8408,-0.8412,-0.8386,-0.8384,-0.8365,-0.8365,-0.8365,-0.8365,0,-0.9245,-0.9183,-0.9133,-0.9048,-0.9026,-0.9003,-0.8929,-0.8899,-0.885,-0.8801,-0.8786,-0.8707,-0.865,-0.8582,-0.8503,-0.8469,-0.8423,-0.8405,-0.8446,-0.8438,-0.8435,-0.8436,-0.844,-0.8436,-0.8401,-0.8401,-0.8401,0,-0.926,-0.9236,-0.9148,-0.9119,-0.9081,-0.9035,-0.8999,-0.8931,-0.8896,-0.8818,-0.8797,-0.8736,-0.8683,-0.8593,-0.8526,-0.8464,-0.8443,-0.8448,-0.8433,-0.845,-0.844,-0.8442,-0.8438,-0.8452,-0.8453,-0.8454,-0.8454,0,-0.9292,-0.9262,-0.9214,-0.9154,-0.9113,-0.9062,-0.9008,-0.8987,-0.8908,-0.887,-0.8811,-0.877,-0.8688,-0.8626,-0.8555,-0.851,-0.8468,-0.846,-0.8454,-0.8472,-0.8496,-0.848,-0.8456,-0.846,-0.8459,-0.8459,-0.8458,-0.8458,-0.9324,-0.9299,-0.9233,-0.918,-0.9133,-0.9083,-0.9051,-0.8997,-0.8947,-0.8877,-0.8839,-0.878,-0.8711,-0.8611,-0.8567,-0.8518,-0.8504,-0.8497,-0.8495,-0.8494,-0.8498,-0.8505,-0.8505,-0.8505,-0.8505,-0.8504,-0.8504,0,-0.9351,-0.9306,-0.9258,-0.9185,-0.9142,-0.9108,-0.9046,-0.9012,-0.8961,-0.8902,-0.8851,-0.8781,-0.872,-0.8649,-0.8582,-0.8556,-0.8535,-0.8541,-0.8541,-0.8531,-0.8516,-0.8526,-0.8559,-0.8559,-0.8559,-0.8559,-0.8559,-0.8559,-0.936,-0.9315,-0.9277,-0.9205,-0.9159,-0.9102,-0.9069,-0.9022,-0.8974,-0.89,-0.8849,-0.8804,-0.8738,-0.8666,-0.8607,-0.8587,-0.8565,-0.8576,-0.855,-0.8537,-0.8533,-0.8528,-0.8537,-0.8572,-0.8572,-0.8569,-0.8569,-0.8569]}]]